Home > Weather > Bydgoszcz > Past weeks

Flag for Poland Weather for the Past 2 Weeks in Bydgoszcz, Poland

Now
49 °F

Passing clouds.


Feels Like: 49 °F
Forecast: 40 / 61 °F
Wind: 1 mph from East

Location: Torun

Current Time: Apr 30, 2016 at 11:17:37 PM

Latest Report: Apr 30, 2016 at 10:00 PM


Visibility: 10 mi

Pressure: 30.19 "Hg

Humidity: 63%

Dew Point: 37 °F

Location of BydgoszczLocation

Historic Weather in Bydgoszcz — Graph

°F

Bydgoszcz Temperature Yesterday

Maximum temperature yesterday: 58 °F (at 5:00 PM)
Minimum temperature yesterday: 31 °F (at 5:00 AM)
Average temperature yesterday: 49 °F

High & Low Weather Summary for the Past Weeks

 TemperatureHumidityPressure
High65 °F (Apr 16, 2:00 PM)97% (Apr 16, 11:00 PM)30.28 "Hg (Apr 16, 11:00 PM)
Low27 °F (Apr 26, 5:00 AM)27% (Apr 29, 5:00 PM)29.53 "Hg (Apr 26, 6:00 PM)
Average48 °F63%29.91 "Hg
* Reported Apr 15 10:00 PM — Apr 30 10:00 PM, Bydgoszcz, Weather by CustomWeather, © 2016

Note: Actual official high and low records may vary slightly from our data, if they occured in-between our weather recording intervals... More about our weather records

Advertising

Bydgoszcz Weather History for the Previous 24 Hours

Scroll right to see more
 ConditionsComfort  
Time TempWeatherWind HumidityBarometerVisibility
10:00 PM
Sat, Apr 30
49 °FPassing clouds.1 mph63%30.19 "Hg10 mi
9:00 PM53 °FPassing clouds.2 mph55%30.18 "Hg16 mi
8:00 PM55 °FPartly sunny.2 mph49%30.16 "Hg14 mi
7:00 PM57 °FPartly sunny.2 mph44%30.15 "Hg25 mi
6:00 PM58 °FPartly sunny.3 mph43%30.15 "Hg25 mi
5:00 PM60 °FPartly sunny.2 mph33%30.15 "Hg19 mi
4:00 PM61 °FPartly sunny.3 mph31%30.15 "Hg25 mi
3:00 PM61 °FScattered clouds.5 mph29%30.16 "Hg19 mi
2:00 PM59 °FScattered clouds.2 mph27%30.17 "Hg19 mi
1:00 PM59 °FPassing clouds.3 mph31%30.18 "Hg19 mi
12:00 PM58 °FPassing clouds.3 mph28%30.19 "Hg22 mi
9:00 AM51 °FPassing clouds.5 mph50%30.23 "Hg25 mi
8:00 AM47 °FPassing clouds.3 mph64%30.23 "Hg13 mi
7:00 AM44 °FPassing clouds.2 mph71%30.24 "Hg11 mi
6:00 AM40 °FPassing clouds.2 mph80%30.24 "Hg6 mi
3:00 AM40 °FClear.2 mph73%30.23 "Hg12 mi
2:00 AM42 °FClear.2 mph70%30.23 "Hg11 mi
1:00 AM42 °FClear.2 mph63%30.22 "Hg9 mi
12:00 AM38 °FClear.1 mph73%30.22 "Hg7 mi
11:00 PM
Fri, Apr 29
40 °FClear.1 mph68%30.22 "Hg7 mi
Weather by CustomWeather, © 2016

See weather overviewHow to use our weather pages